EA1BFZ-13 Weather Reports


time (UTC)temp
F
wind
direction
speed
knots
gust
knots
rain 1hr
in
rain 24hr
in
rain mn
in
humidity
%
barometer
mb
20260507080113 55 0 3.5 2.6 0.00 0.00 0.00 1012.0
20260507075113 51 0 0.9 2.6 0.00 0.00 0.00 1013.0
20260507074113 51 0 1.7 1.7 0.00 0.00 0.00 1012.0
20260507073113 50 0 4.3 2.6 0.00 0.00 0.00 1012.0
20260507072113 49 0 0.9 1.7 0.00 0.00 0.00 1013.0
20260507071113 48 0 2.6 2.6 0.00 0.00 0.00 1013.0
20260507070113 47 0 1.7 0.9 0.00 0.00 0.00 1013.0
20260507065113 46 0 0.0 0.9 0.00 0.00 0.00 1013.0
20260507064113 45 0 1.7 1.7 0.00 0.00 0.00 1013.0
20260507063113 45 0 2.6 2.6 0.00 0.00 0.00 1013.0
20260507062113 45 0 0.9 1.7 0.00 0.00 0.00 1012.0
20260507061113 45 0 0.0 1.7 0.00 0.00 0.00 1013.0
20260507060113 44 0 0.0 0.0 0.00 0.00 0.00 1013.0
20260507055113 43 0 0.0 0.0 0.00 0.00 0.00 1013.0
20260507054113 43 0 0.0 0.9 0.00 0.00 0.00 1013.0
20260507053113 42 0 0.0 0.9 0.00 0.00 0.00 1013.0
20260507052113 41 0 0.0 1.7 0.00 0.00 0.00 1013.0
20260507051113 41 0 0.0 0.9 0.00 0.00 0.00 1013.0
20260507050113 41 0 0.0 0.9 0.00 0.00 0.00 1013.0
20260507045113 41 0 0.0 0.0 0.00 0.00 0.00 1013.0
20260507044113 40 0 0.0 0.0 0.00 0.00 0.00 1013.0
20260507043113 40 0 0.0 0.9 0.00 0.00 0.00 1013.0
20260507042113 40 0 0.0 0.9 0.00 0.00 0.00 1013.0
20260507041114 40 0 0.0 0.9 0.00 0.00 0.00 1013.0
20260507040113 40 0 0.0 0.0 0.00 0.00 0.00 1013.0
20260507035113 40 0 0.0 0.9 0.00 0.00 0.00 1013.0
20260507034113 39 0 0.0 0.0 0.00 0.00 0.00 1013.0
20260507033113 39 0 0.0 1.7 0.00 0.00 0.00 1013.0
20260507032113 39 0 1.7 0.9 0.00 0.00 0.00 1013.0
20260507031113 39 0 0.0 1.7 0.00 0.00 0.00 1013.0
20260507030113 40 0 0.0 0.9 0.00 0.00 0.00 1013.0
20260507025113 39 0 0.0 1.7 0.00 0.00 0.00 1013.0
20260507024113 40 0 0.0 0.9 0.00 0.00 0.00 1013.0
20260507023113 40 0 0.0 0.0 0.00 0.00 0.00 1013.0
20260507022113 40 0 0.0 0.0 0.00 0.00 0.00 1013.0
20260507020113 40 0 0.0 0.9 0.00 0.00 0.00 1013.0
20260507015113 41 0 0.0 1.7 0.00 0.00 0.00 1013.0
20260507014113 42 0 0.0 1.7 0.00 0.00 0.00 1013.0
20260507013113 41 0 1.7 1.7 0.00 0.00 0.00 1013.0
20260507012113 41 0 0.0 0.9 0.00 0.00 0.00 1013.0
20260507011113 41 0 0.0 0.0 0.00 0.00 0.00 1013.0
20260507010113 42 0 0.0 0.9 0.00 0.00 0.00 1013.0
20260507005113 42 0 0.0 0.0 0.00 0.00 0.00 1013.0
20260507004113 42 0 0.0 0.0 0.00 0.00 0.00 1013.0
20260507003113 43 0 0.0 2.6 0.00 0.00 0.00 1013.0
20260507002113 43 0 0.9 1.7 0.00 0.00 0.00 1013.0
20260507001113 43 0 2.6 2.6 0.00 0.00 0.00 1013.0
20260507000113 43 0 1.7 1.7 0.00 0.00 0.00 1013.0
20260506235113 43 0 1.7 1.7 0.00 0.00 0.00 1013.0
20260506234113 43 0 1.7 1.7 0.00 0.00 0.00 1013.0
20260506233113 44 0 0.9 1.7 0.00 0.00 0.00 1013.0
20260506232113 44 0 1.7 2.6 0.00 0.00 0.00 1013.0
20260506231113 44 0 2.6 2.6 0.00 0.00 0.00 1013.0
20260506230113 44 0 1.7 1.7 0.00 0.00 0.00 1013.0
20260506225113 44 0 1.7 2.6 0.00 0.00 0.00 1013.0
20260506224113 44 0 1.7 2.6 0.00 0.00 0.00 1013.0
20260506223113 44 0 0.9 2.6 0.00 0.00 0.00 1013.0
20260506222113 44 0 2.6 3.5 0.00 0.00 0.00 1013.0
20260506221113 44 0 2.6 2.6 0.00 0.00 0.00 1013.0
20260506220113 44 0 3.5 2.6 0.00 0.00 0.00 1013.0
20260506215113 45 0 0.9 3.5 0.00 0.00 0.00 1013.0
20260506214113 45 0 2.6 2.6 0.00 0.00 0.00 1013.0
20260506213113 45 0 2.6 1.7 0.00 0.00 0.00 1013.0
20260506212113 45 0 4.3 3.5 0.00 0.00 0.00 1013.0
20260506211113 45 0 1.7 3.5 0.00 0.00 0.00 1013.0
20260506210113 46 0 2.6 3.5 0.00 0.00 0.00 1013.0
20260506205113 46 0 3.5 2.6 0.00 0.00 0.00 1013.0
20260506204113 46 0 0.0 1.7 0.00 0.00 0.00 1013.0
20260506203113 46 0 1.7 3.5 0.00 0.00 0.00 1013.0
20260506202113 47 0 2.6 3.5 0.00 0.00 0.00 1013.0
20260506201113 47 0 2.6 3.5 0.00 0.00 0.00 1013.0
20260506200113 47 0 3.5 3.5 0.00 0.00 0.00 1012.0
20260506195113 48 0 2.6 1.7 0.00 0.00 0.00 1012.0
20260506194113 48 0 4.3 3.5 0.00 0.00 0.00 1012.0
20260506193113 49 0 2.6 2.6 0.00 0.00 0.00 1012.0
20260506192113 49 0 0.9 3.5 0.00 0.00 0.00 1012.0
20260506191113 50 0 1.7 1.7 0.00 0.00 0.00 1012.0
20260506190113 50 0 4.3 3.5 0.00 0.00 0.00 1012.0
20260506184113 52 0 2.6 7.0 0.00 0.00 0.00 1011.0
20260506183113 52 0 4.3 6.1 0.00 0.00 0.00 1011.0
20260506181113 53 0 5.2 7.0 0.00 0.00 0.00 1011.0
20260506180113 53 0 1.7 4.3 0.00 0.00 0.00 1011.0
20260506175113 53 0 1.7 5.2 0.00 0.00 0.00 1011.0
20260506174113 54 0 4.3 3.5 0.00 0.00 0.00 1011.0
20260506173113 55 0 5.2 7.0 0.00 0.00 0.00 1011.0
20260506172113 56 0 4.3 7.8 0.00 0.00 0.00 1011.0
20260506171113 57 0 5.2 4.3 0.00 0.00 0.00 1011.0
20260506170113 57 0 6.1 6.1 0.00 0.00 0.00 1011.0
20260506165113 58 0 3.5 5.2 0.00 0.00 0.00 1011.0
20260506164113 58 0 4.3 1.7 0.00 0.00 0.00 1011.0
20260506163113 58 0 4.3 4.3 0.00 0.00 0.00 1011.0
20260506162113 59 0 3.5 3.5 0.00 0.00 0.00 1011.0
20260506161113 60 0 3.5 7.0 0.00 0.00 0.00 1011.0
20260506160113 62 0 3.5 5.2 0.00 0.00 0.00 1011.0
20260506155113 65 0 6.1 4.3 0.00 0.00 0.00 1010.0
20260506154113 70 0 2.6 1.7 0.00 0.00 0.00 1010.0
20260506153113 65 0 0.9 0.9 0.00 0.00 0.00 1010.0
20260506152113 65 0 0.0 1.7 0.00 0.00 0.00 1011.0
20260506151113 67 0 0.0 1.7 0.00 0.00 0.00 1010.0
20260506150113 66 0 0.0 1.7 0.00 0.00 0.00 1011.0
20260506145113 70 0 2.6 3.5 0.00 0.00 0.00 1011.0
20260506144113 74 0 0.0 0.0 0.00 0.00 0.00 1011.0
20260506142731 75 0 0.0 0.0 0.00 0.00 0.00 1010.0
20260506142333 75 0 0.0 0.0 0.00 0.00 0.00 1010.0
20260506141333 74 0 0.0 0.0 0.00 0.00 0.00 1010.0
20260506140333 74 0 0.0 0.0 0.00 0.00 0.00 1010.0
20260506135333 74 0 0.0 0.0 0.00 0.00 0.00 1010.0
20260506134333 74 0 0.0 0.0 0.00 0.00 0.00 1010.0
20260506133333 74 0 0.0 0.0 0.00 0.00 0.00 1011.0
20260506132333 74 0 0.0 0.0 0.00 0.00 0.00 1011.0
20260506131333 74 0 0.0 4.3 0.00 0.00 0.00 1011.0
20260506130333 74 0 0.0 0.0 0.00 0.00 0.00 1011.0
20260506125333 74 0 0.0 0.0 0.00 0.00 0.00 1011.0
20260506124333 74 0 0.0 0.0 0.00 0.00 0.00 1011.0
20260506123333 74 0 0.0 0.0 0.00 0.00 0.00 1011.0
20260506122333 74 0 0.0 0.0 0.00 0.00 0.00 1011.0
20260506121333 74 0 0.0 0.0 0.00 0.00 0.00 1011.0
20260506120333 74 0 0.0 0.0 0.00 0.00 0.00 1011.0
20260506115333 74 0 0.0 0.0 0.00 0.00 0.00 1011.0
20260506114333 73 0 0.0 0.0 0.00 0.00 0.00 1011.0
20260506113333 73 0 0.0 0.0 0.00 0.00 0.00 1011.0
20260506112333 72 0 0.0 7.8 0.00 0.00 0.00 1011.0
20260506111333 71 0 0.0 0.0 0.00 0.00 0.00 1012.0
20260506110333 70 0 0.0 0.0 0.00 0.00 0.00 1012.0
20260506105333 69 0 0.0 0.0 0.00 0.00 0.00 1012.0
20260506104333 68 0 0.0 0.0 0.00 0.00 0.00 1012.0
20260506103333 67 0 0.0 0.0 0.00 0.00 0.00 1012.0
20260506102333 66 0 0.0 0.0 0.00 0.00 0.00 1012.0